Weather History for KGTF - October, 2012

Change the Weather History Date:

Sunday, October 7, 2012

  Actual Average Record
Temperature  
Mean Temperature 53 °F 48 °F  
Max Temperature 68 °F 62 °F 88 °F (1895)
Min Temperature 37 °F 35 °F 15 °F (1985)
Degree Days  
Heating Degree Days 12 17  
Month to date heating degree days 141 110  
Since 1 July heating degree days 318 517  
Cooling Degree Days 0 0  
Month to date cooling degree days 0 0  
Year to date cooling degree days 484 297  
Growing Degree Days 2 (Base 50)    
Moisture  
Dew Point 29 °F    
Average Humidity 52    
Maximum Humidity 82    
Minimum Humidity 22    
Precipitation  
Precipitation 0.00 in 0.03 in 0.81 in (2011)
Month to date precipitation 0.43 0.24  
Year to date precipitation 10.22 12.99  
Snow  
Snow 0.00 in 0.10 in 5.50 in (1985)
Month to date snowfall 1.5 0.7  
Since 1 July snowfall 1.5 2.2  
Since 1 September snowfall 1.5 1.9  
Snow Depth 0.00 in    
Sea Level Pressure  
Sea Level Pressure 30.04 in    
Wind  
Wind Speed 13 mph (SW)    
Max Wind Speed 25 mph    
Max Gust Speed 29 mph    
Visibility 10 miles    
Events      
T = Trace of Precipitation, MM = Missing Value Source: NWS Daily Summary

Daily Weather History Graph

Daily Weather History Graph

Search for Another Location

Airport or City:

Trip Planner

Search our weather history database for the weather conditions in past years. The results will help you decide how hot, cold, wet, or windy it might be!

Date:

Astronomy

Oct. 07, 2012 Rise Set
Actual Time 7:33 AM MDT 6:51 PM MDT
Civil Twilight 7:02 AM MDT 7:22 PM MDT
Nautical Twilight 6:27 AM MDT 7:58 PM MDT
Astronomical Twilight 5:51 AM MDT 8:33 PM MDT
Moon 11:51 PM MDT (10/7) 2:30 PM MDT (10/7)
Length of Visible Light 12h 19m
Length of Day
11h 18m
Waning Gibbous, 55% of the Moon is Illuminated
Oct 7
Waning Gibbous
Oct 8
Last Quarter
Oct 15
New
Oct 21
First Quarter
Oct 29
Full

Hourly Weather History & Observations

Time (MDT) Temp. Windchill Dew Point Humidity Pressure Visibility Wind Dir Wind Speed Gust Speed Precip Events Conditions
12:53 AM 37.9 °F 31.5 °F 32.0 °F 79% 30.20 in 10.0 mi SSW 9.2 mph - N/A   Clear
1:53 AM 39.0 °F 32.3 °F 32.0 °F 76% 30.19 in 10.0 mi SSW 10.4 mph - N/A   Clear
2:53 AM 39.9 °F 33.4 °F 32.0 °F 73% 30.18 in 10.0 mi SSW 10.4 mph - N/A   Mostly Cloudy
3:53 AM 37.9 °F 30.9 °F 30.9 °F 76% 30.16 in 10.0 mi SSW 10.4 mph - N/A   Scattered Clouds
4:53 AM 37.9 °F 30.9 °F 30.9 °F 76% 30.14 in 10.0 mi SW 10.4 mph - N/A   Clear
5:53 AM 39.9 °F 32.5 °F 30.0 °F 68% 30.12 in 10.0 mi SSW 12.7 mph - N/A   Clear
6:53 AM 39.9 °F 32.1 °F 28.9 °F 65% 30.12 in 10.0 mi SSW 13.8 mph - N/A   Clear
7:53 AM 41.0 °F 32.5 °F 28.9 °F 62% 30.12 in 10.0 mi SSW 17.3 mph - N/A   Clear
8:53 AM 44.1 °F 35.9 °F 28.9 °F 55% 30.09 in 10.0 mi SSW 19.6 mph - N/A   Clear
9:53 AM 48.9 °F - 30.0 °F 48% 30.05 in 10.0 mi SSW 18.4 mph - N/A   Clear
10:53 AM 55.0 °F - 27.0 °F 34% 30.03 in 10.0 mi SW 23.0 mph 28.8 mph N/A   Clear
11:53 AM 57.0 °F - 26.1 °F 30% 30.04 in 10.0 mi SSW 18.4 mph - N/A   Clear
12:53 PM 62.1 °F - 27.0 °F 26% 30.01 in 10.0 mi SW 17.3 mph - N/A   Clear
1:53 PM 64.0 °F - 28.0 °F 26% 29.98 in 10.0 mi SSW 19.6 mph - N/A   Clear
2:53 PM 66.9 °F - 28.0 °F 23% 29.94 in 10.0 mi SW 17.3 mph 23.0 mph N/A   Clear
3:53 PM 66.9 °F - 26.1 °F 21% 29.94 in 10.0 mi NNW 17.3 mph 21.9 mph N/A   Clear
4:53 PM 66.0 °F - 26.1 °F 22% 29.93 in 10.0 mi WNW 13.8 mph 19.6 mph N/A   Clear
5:53 PM 61.0 °F - 27.0 °F 27% 29.93 in 10.0 mi NW 8.1 mph - N/A   Clear
6:53 PM 53.1 °F - 28.9 °F 40% 29.95 in 10.0 mi WNW 4.6 mph - N/A   Clear
7:53 PM 46.0 °F 41.4 °F 28.0 °F 50% 29.97 in 10.0 mi SW 9.2 mph - N/A   Clear
8:53 PM 45.0 °F 41.2 °F 28.9 °F 53% 29.98 in 10.0 mi WNW 6.9 mph - N/A   Clear
9:53 PM 41.0 °F 35.8 °F 30.0 °F 65% 29.98 in 10.0 mi WSW 8.1 mph - N/A   Clear
10:53 PM 44.1 °F 38.6 °F 30.0 °F 58% 29.95 in 10.0 mi SW 10.4 mph - N/A   Clear
11:53 PM 44.1 °F 38.6 °F 30.9 °F 60% 29.94 in 10.0 mi SSW 10.4 mph - N/A   Clear